Regional Weather Roundup
Issued by NWS New Orleans/Baton Rouge, LA

Home | Current Version | Previous Version | Text Only | Print | Product List | Glossary On
Versions: 1 2 3 4 5 6 7 8 9 10 11 12 13 14 15 16 17 18 19 20 21 22 23 24 25 26 27 28 29 30 31 32 33 34 35 36 37 38 39 40 41 42 43 44 45 46 47 48 49 50
074
ASUS44 KLIX 201101
RWRLIX
NEW ORLEANS REGIONAL WEATHER ROUNDUP
NATIONAL WEATHER SERVICE NEW ORLEANS LA
600 AM CDT MON OCT 20 2014

NOTE: "FAIR" INDICATES FEW OR NO CLOUDS BELOW 12,000 FEET WITH NO
      SIGNIFICANT WEATHER AND/OR OBSTRUCTIONS TO VISIBILITY.
      SKY/WX - SKY CONDITION AND SIGNIFICANT WEATHER.
      TMP - AIR TEMPERATURE.     DP    - DEWPOINT TEMPERATURE.
      RH  - RELATIVE HUMIDITY.   PRES  - PRESSURE.
      HI  - HEAT INDEX.          WCI   - WIND CHILL INDEX.

*  THESE STATIONS ARE NOT NWS OR FAA STATIONS AND ARE NOT UNDER
   NWS QUALITY CONTROL.

LAZ038-040-048-061>063-065>067-069-201200-
SOUTHEAST LOUISIANA

CITY           SKY/WX    TMP DP  RH WIND       PRES   REMARKS
N.O. AUDUBON     N/A     61  58  91 MISG        N/A
N.O. INTL ARPT PTCLDY    59  55  87 CALM      30.03R
N.O. LAKEFRONT CLEAR     68  59  73 E8        30.03S
N.O. DOWNTOWN*   N/A     66  54  63 NE5       30.03S
SLIDELL        CLEAR     49  46  90 N3        30.04S
BATON ROUGE    CLEAR     52  49  89 CALM      30.04S
BOOTHVILLE     CLEAR     71  62  73 NE5       30.02S
BELLE CHASSE   CLEAR     57  53  86 CALM      30.02S
BOGALUSA*        N/A     46  44  90 CALM      30.07S
NEW ROADS*       N/A     53  50  90 CALM      30.05R
GONZALES*        N/A     55  55 100 CALM      30.03S
HAMMOND*       NOT AVBL
HOUMA*         CLEAR     60  58  94 NE3       30.02S
PORT FOURCHON* SUNNY     70  63  78 NE7       30.04S

$$

MSZ070-080>082-201200-
SOUTHERN MISSISSIPPI

CITY           SKY/WX    TMP DP  RH WIND       PRES   REMARKS
MCCOMB         CLEAR     49  45  86 CALM      30.06R
GULFPORT       CLEAR     52  48  86 N3        30.03S
BILOXI         CLEAR     54  49  83 NE5       30.04R
PASCAGOULA     CLEAR     46  45  96 CALM      30.05R

$$

COASTAL OBSERVATIONS
LAKE AND NEARSHORE STATIONS

STATION/POSITION TIME  TEMP    WIND        PRES    WAVE
                       AIR SEA DIR/SP/G            HT/PER
                 (UTC) (F)     (DEG/KT/KT) (MB)    (FT/S)
PASCAGOULA       1000   55      10/  5/  6 1016.5
WAVELAND YACHT   1000   62      30/  5/  6 1016.3
GRAND ISLE       1000   72 78   70/  8/ 11 1016.7
SOUTHWEST PASS   1000   74 84              1016.2
NEW CANAL        1000   66 72   80/  3/  5 1017.1
SHELL BEACH      1000   69 69   40/  9/ 10 1016.5

OFFSHORE STATIONS

STATION/POSITION TIME  TEMP    WIND        PRES    WAVE
                       AIR SEA DIR/SP/G            HT/PER
                 (UTC) (F)     (DEG/KT/KT) (MB)    (FT/S)
64 S DAUPHIN ISL 0959   73 79   80/  8/ 12 1016.7    2/ 6

$$




USA.gov is the U.S. government's official web portal to all federal, state and local government web resources and services.